SKY132 RJFK-RJBE

Flight info

Callsign SKY132
Flight time 0h 56m
Altitude 35000
Route MIDAI M750 MADOG Y53 SUC Y537 LOVGI Y353 AVKUL
Aircraft B738/M-SDE2E3FGHIRWXY/LB1

Departure

Time 2026-05-09 11:30
Airport Kagoshima Airport (RJFK)

Arrival

Time 2026-05-09 12:26
Airport Kobe Airport (RJBE)
Time Latitude Longitude Altitude Speed Heading
2026-05-09 11:16 31.80140 130.71690 901 ft 0 kts 238°
2026-05-09 11:23 31.80144 130.71698 901 ft 3 kts 239°
2026-05-09 11:24 31.80154 130.71718 901 ft 3 kts 240°
2026-05-09 11:24 31.80165 130.71738 901 ft 3 kts 233°
2026-05-09 11:24 31.80178 130.71756 902 ft 3 kts 221°
2026-05-09 11:24 31.80194 130.71770 903 ft 3 kts 206°
2026-05-09 11:25 31.80209 130.71778 906 ft 1 kts 193°
2026-05-09 11:25 31.80211 130.71778 906 ft 1 kts 193°
2026-05-09 11:26 31.80209 130.71778 906 ft 1 kts 188°
2026-05-09 11:26 31.80194 130.71794 908 ft 6 kts 137°
2026-05-09 11:27 31.80139 130.71843 905 ft 14 kts 149°
2026-05-09 11:27 31.80028 130.71922 906 ft 22 kts 149°
2026-05-09 11:27 31.79893 130.72018 904 ft 23 kts 150°
2026-05-09 11:27 31.79757 130.72108 907 ft 22 kts 148°
2026-05-09 11:28 31.79626 130.72198 903 ft 21 kts 152°
2026-05-09 11:28 31.79496 130.72280 909 ft 21 kts 152°
2026-05-09 11:28 31.79373 130.72362 907 ft 19 kts 150°
2026-05-09 11:28 31.79262 130.72436 908 ft 18 kts 150°
2026-05-09 11:29 31.79158 130.72508 909 ft 15 kts 144°
2026-05-09 11:29 31.79128 130.72612 908 ft 15 kts 67°
2026-05-09 11:29 31.79191 130.72695 909 ft 14 kts
2026-05-09 11:29 31.79279 130.72655 915 ft 14 kts 330°
2026-05-09 11:30 31.79598 130.72438 914 ft 98 kts 330°
2026-05-09 11:30 31.80447 130.71897 962 ft 170 kts 333°
2026-05-09 11:30 31.81573 130.71215 1648 ft 194 kts 330°
2026-05-09 11:30 31.82764 130.70464 2684 ft 195 kts 334°
2026-05-09 11:31 31.84176 130.70274 3197 ft 222 kts 13°
2026-05-09 11:31 31.85477 130.71352 3554 ft 242 kts 56°
2026-05-09 11:31 31.85927 130.73257 4219 ft 246 kts 91°
2026-05-09 11:31 31.85628 130.75289 4730 ft 262 kts 107°
2026-05-09 11:32 31.85064 130.77359 5433 ft 271 kts 108°
2026-05-09 11:32 31.84483 130.79487 6364 ft 275 kts 108°
2026-05-09 11:32 31.83512 130.81434 7201 ft 281 kts 135°
2026-05-09 11:32 31.81940 130.82822 8070 ft 286 kts 147°
2026-05-09 11:33 31.80229 130.84048 8927 ft 290 kts 148°
2026-05-09 11:33 31.78479 130.85272 9813 ft 295 kts 148°
2026-05-09 11:33 31.74799 130.87870 10694 ft 333 kts 148°
2026-05-09 11:34 31.72746 130.89336 10888 ft 358 kts 148°
2026-05-09 11:34 31.70549 130.90912 11122 ft 378 kts 148°
2026-05-09 11:34 31.68279 130.92545 11664 ft 387 kts 148°
2026-05-09 11:34 31.65963 130.94211 12326 ft 392 kts 148°
2026-05-09 11:35 31.63733 130.96074 12966 ft 398 kts 135°
2026-05-09 11:35 31.62158 130.98747 13615 ft 402 kts 113°
2026-05-09 11:35 31.61403 131.01901 14233 ft 405 kts 94°
2026-05-09 11:35 31.61287 131.05209 14792 ft 408 kts 90°
2026-05-09 11:36 31.61240 131.08565 15330 ft 414 kts 89°
2026-05-09 11:36 31.61198 131.11964 15877 ft 419 kts 89°
2026-05-09 11:36 31.61142 131.15403 16435 ft 424 kts 90°
2026-05-09 11:36 31.61069 131.18866 16998 ft 427 kts 90°
2026-05-09 11:37 31.61014 131.21186 17331 ft 431 kts 90°
2026-05-09 11:37 31.60892 131.25932 18022 ft 438 kts 90°
2026-05-09 11:37 31.60831 131.28303 18367 ft 441 kts 91°
2026-05-09 11:37 31.60704 131.33139 18934 ft 447 kts 90°
2026-05-09 11:38 31.60746 131.35559 19175 ft 450 kts 82°
2026-05-09 11:38 31.61583 131.39085 19571 ft 450 kts 62°
2026-05-09 11:38 31.63127 131.42277 20039 ft 451 kts 56°
2026-05-09 11:38 31.64777 131.45431 20410 ft 456 kts 55°
2026-05-09 11:39 31.66455 131.48608 20793 ft 461 kts 55°
2026-05-09 11:39 31.68147 131.51829 21176 ft 465 kts 55°
2026-05-09 11:39 31.69839 131.55082 21555 ft 470 kts 56°
2026-05-09 11:40 31.73244 131.61714 22296 ft 478 kts 56°
2026-05-09 11:40 31.74956 131.65076 22649 ft 482 kts 56°
2026-05-09 11:40 31.76685 131.68478 22997 ft 486 kts 56°
2026-05-09 11:40 31.78425 131.71906 23340 ft 490 kts 56°
2026-05-09 11:41 31.80177 131.75359 23672 ft 494 kts 56°
2026-05-09 11:41 31.81943 131.78843 23952 ft 498 kts 56°
2026-05-09 11:41 31.83720 131.82350 24248 ft 500 kts 56°
2026-05-09 11:41 31.85504 131.85875 24562 ft 503 kts 56°
2026-05-09 11:42 31.87297 131.89419 24849 ft 506 kts 56°
2026-05-09 11:42 31.89097 131.92980 25145 ft 508 kts 56°
2026-05-09 11:42 31.90905 131.96560 25433 ft 510 kts 56°
2026-05-09 11:42 31.92672 132.00063 25694 ft 513 kts 56°
2026-05-09 11:43 31.94465 132.03619 25926 ft 516 kts 56°
2026-05-09 11:43 31.96300 132.07265 26197 ft 519 kts 56°
2026-05-09 11:43 31.98144 132.10930 26463 ft 521 kts 56°
2026-05-09 11:43 31.99996 132.14616 26726 ft 524 kts 56°
2026-05-09 11:44 32.01850 132.18309 26984 ft 526 kts 57°
2026-05-09 11:44 32.03718 132.22035 27209 ft 529 kts 57°
2026-05-09 11:44 32.05593 132.25777 27415 ft 532 kts 57°
2026-05-09 11:44 32.07476 132.29541 27663 ft 534 kts 57°
2026-05-09 11:45 32.09367 132.33321 27856 ft 537 kts 57°
2026-05-09 11:45 32.11335 132.37072 28092 ft 537 kts 51°
2026-05-09 11:45 32.13658 132.40493 28384 ft 533 kts 43°
2026-05-09 11:45 32.16335 132.43486 28678 ft 527 kts 34°
2026-05-09 11:46 32.19208 132.46166 29033 ft 526 kts 33°
2026-05-09 11:46 32.22099 132.48818 29369 ft 526 kts 33°
2026-05-09 11:46 32.24980 132.51468 29728 ft 526 kts 33°
2026-05-09 11:46 32.27862 132.54145 30072 ft 526 kts 33°
2026-05-09 11:47 32.30729 132.56836 30373 ft 527 kts 33°
2026-05-09 11:47 32.33589 132.59543 30678 ft 527 kts 34°
2026-05-09 11:47 32.36444 132.62257 31013 ft 527 kts 34°
2026-05-09 11:47 32.39305 132.64982 31201 ft 529 kts 34°
2026-05-09 11:48 32.42177 132.67719 31438 ft 531 kts 34°
2026-05-09 11:48 32.45045 132.70453 31772 ft 529 kts 34°
2026-05-09 11:48 32.47919 132.73196 32125 ft 528 kts 34°
2026-05-09 11:48 32.50737 132.75886 32469 ft 528 kts 34°
2026-05-09 11:49 32.53633 132.78649 32744 ft 528 kts 34°
2026-05-09 11:49 32.56499 132.81387 33037 ft 529 kts 34°
2026-05-09 11:49 32.59324 132.84088 33338 ft 528 kts 34°
2026-05-09 11:49 32.62180 132.86822 33644 ft 528 kts 34°
2026-05-09 11:50 32.65073 132.89593 33932 ft 528 kts 34°
2026-05-09 11:50 32.67898 132.92302 34211 ft 528 kts 34°
2026-05-09 11:50 32.70730 132.95020 34528 ft 526 kts 34°
2026-05-09 11:50 32.73565 132.97743 34864 ft 523 kts 34°
2026-05-09 11:51 32.76277 133.00439 35138 ft 525 kts 38°
2026-05-09 11:51 32.81352 133.06823 35143 ft 534 kts 45°
2026-05-09 11:52 32.86279 133.13409 35141 ft 531 kts 44°
2026-05-09 11:52 32.91253 133.19861 35161 ft 529 kts 43°
2026-05-09 11:53 32.96328 133.26182 35133 ft 525 kts 38°
2026-05-09 11:53 33.01797 133.31865 35127 ft 516 kts 35°
2026-05-09 11:53 33.04512 133.34582 34622 ft 506 kts 35°
2026-05-09 11:54 33.07218 133.37297 33481 ft 511 kts 35°
2026-05-09 11:54 33.09954 133.40068 32069 ft 520 kts 35°
2026-05-09 11:54 33.12719 133.42900 30679 ft 528 kts 35°
2026-05-09 11:54 33.15510 133.45786 29152 ft 533 kts 35°
2026-05-09 11:55 33.18305 133.48693 27682 ft 533 kts 35°
2026-05-09 11:56 33.31791 133.62774 21873 ft 486 kts 35°
2026-05-09 11:56 33.34303 133.65393 20871 ft 472 kts 36°
2026-05-09 11:56 33.36744 133.67937 19925 ft 459 kts 36°
2026-05-09 11:57 33.39108 133.70404 19193 ft 442 kts 37°
2026-05-09 11:57 33.41397 133.72796 18604 ft 437 kts 37°
2026-05-09 11:57 33.43680 133.75161 18463 ft 426 kts 36°
2026-05-09 11:57 33.45887 133.77437 18313 ft 411 kts 36°
2026-05-09 11:58 33.48007 133.79623 18172 ft 395 kts 36°
2026-05-09 11:58 33.50037 133.81734 18132 ft 378 kts 36°
2026-05-09 11:58 33.51981 133.83770 18070 ft 363 kts 36°
2026-05-09 11:58 33.53867 133.85744 17615 ft 360 kts 36°
2026-05-09 11:59 33.55930 133.87506 16588 ft 370 kts 24°
2026-05-09 11:59 33.58307 133.88692 15838 ft 369 kts 11°
2026-05-09 11:59 33.60810 133.89206 15336 ft 362 kts
2026-05-09 11:59 33.63301 133.89442 14971 ft 356 kts
2026-05-09 12:00 33.65748 133.89688 14675 ft 352 kts
2026-05-09 12:00 33.68172 133.89954 14378 ft 348 kts
2026-05-09 12:00 33.70601 133.90231 14099 ft 352 kts
2026-05-09 12:00 33.73044 133.90512 13822 ft 354 kts
2026-05-09 12:01 33.75474 133.90783 13457 ft 352 kts
2026-05-09 12:01 33.77929 133.91052 13062 ft 349 kts
2026-05-09 12:01 33.80334 133.91314 12768 ft 344 kts
2026-05-09 12:01 33.82699 133.91566 12479 ft 339 kts
2026-05-09 12:02 33.85027 133.91822 12208 ft 332 kts
2026-05-09 12:02 33.87301 133.92074 11912 ft 325 kts
2026-05-09 12:02 33.89524 133.92318 11631 ft 318 kts
2026-05-09 12:02 33.91725 133.92561 11390 ft 320 kts
2026-05-09 12:03 33.94060 133.92814 11154 ft 354 kts
2026-05-09 12:03 33.96532 133.93086 10946 ft 354 kts
2026-05-09 12:03 33.98907 133.93360 10797 ft 340 kts
2026-05-09 12:03 34.01186 133.93623 10644 ft 327 kts
2026-05-09 12:04 34.03401 133.93882 10515 ft 314 kts
2026-05-09 12:04 34.05535 133.94131 10388 ft 303 kts
2026-05-09 12:04 34.07593 133.94368 10272 ft 293 kts
2026-05-09 12:04 34.09585 133.94596 10166 ft 284 kts
2026-05-09 12:05 34.11525 133.94819 10041 ft 275 kts
2026-05-09 12:05 34.13400 133.95034 9926 ft 267 kts
2026-05-09 12:05 34.15228 133.95243 9817 ft 261 kts
2026-05-09 12:05 34.17028 133.95449 9721 ft 259 kts
2026-05-09 12:06 34.18824 133.95653 9632 ft 261 kts
2026-05-09 12:06 34.20646 133.95860 9536 ft 265 kts
2026-05-09 12:06 34.22497 133.96071 9512 ft 271 kts
2026-05-09 12:06 34.24408 133.96289 9418 ft 279 kts
2026-05-09 12:07 34.26343 133.96512 9274 ft 279 kts
2026-05-09 12:07 34.28268 133.96734 9147 ft 278 kts
2026-05-09 12:07 34.30187 133.96956 9049 ft 277 kts
2026-05-09 12:07 34.32113 133.97178 9013 ft 278 kts
2026-05-09 12:08 34.34030 133.97399 9010 ft 276 kts
2026-05-09 12:08 34.35947 133.97620 9014 ft 276 kts
2026-05-09 12:08 34.37852 133.97943 9004 ft 279 kts 14°
2026-05-09 12:08 34.39641 133.98857 9031 ft 280 kts 22°
2026-05-09 12:09 34.41410 133.99863 9014 ft 280 kts 22°
2026-05-09 12:09 34.43097 134.00798 9018 ft 280 kts 21°
2026-05-09 12:09 34.44875 134.01768 9022 ft 281 kts 21°
2026-05-09 12:10 34.50214 134.04756 9024 ft 282 kts 22°
2026-05-09 12:10 34.51899 134.05973 9008 ft 287 kts 41°
2026-05-09 12:10 34.52701 134.07249 9036 ft 290 kts 59°
2026-05-09 12:11 34.53383 134.09551 9036 ft 293 kts 73°
2026-05-09 12:11 34.53866 134.11949 9027 ft 295 kts 74°
2026-05-09 12:11 34.54319 134.14341 9023 ft 295 kts 75°
2026-05-09 12:11 34.54776 134.16767 9025 ft 295 kts 75°
2026-05-09 12:12 34.55240 134.19198 9033 ft 296 kts 75°
2026-05-09 12:12 34.55707 134.21626 9029 ft 296 kts 75°
2026-05-09 12:12 34.56179 134.24056 9027 ft 296 kts 74°
2026-05-09 12:12 34.56654 134.26489 9029 ft 296 kts 74°
2026-05-09 12:13 34.56968 134.28096 9027 ft 296 kts 74°
2026-05-09 12:13 34.57432 134.30462 9030 ft 296 kts 74°
2026-05-09 12:13 34.57908 134.32887 9028 ft 296 kts 74°
2026-05-09 12:13 34.58385 134.35316 9030 ft 296 kts 74°
2026-05-09 12:14 34.58859 134.37732 8974 ft 293 kts 74°
2026-05-09 12:14 34.59328 134.40125 8762 ft 290 kts 74°
2026-05-09 12:14 34.59794 134.42503 8402 ft 290 kts 74°
2026-05-09 12:14 34.60260 134.44886 8104 ft 289 kts 75°
2026-05-09 12:15 34.60727 134.47269 8062 ft 293 kts 75°
2026-05-09 12:15 34.61197 134.49678 8033 ft 291 kts 75°
2026-05-09 12:15 34.61654 134.52023 8019 ft 279 kts 75°
2026-05-09 12:15 34.62090 134.54263 8015 ft 266 kts 75°
2026-05-09 12:16 34.62504 134.56393 8004 ft 251 kts 75°
2026-05-09 12:16 34.62896 134.58407 8016 ft 242 kts 75°
2026-05-09 12:16 34.63281 134.60389 8022 ft 241 kts 75°
2026-05-09 12:16 34.63667 134.62370 8034 ft 243 kts 74°
2026-05-09 12:17 34.64056 134.64372 8045 ft 244 kts 74°
2026-05-09 12:17 34.64445 134.66375 8044 ft 244 kts 74°
2026-05-09 12:17 34.64829 134.68357 8031 ft 243 kts 74°
2026-05-09 12:17 34.65220 134.70378 8025 ft 242 kts 74°
2026-05-09 12:18 34.65599 134.72338 8031 ft 241 kts 74°
2026-05-09 12:18 34.65987 134.74346 8040 ft 241 kts 75°
2026-05-09 12:18 34.66288 134.76320 8019 ft 242 kts 90°
2026-05-09 12:18 34.65935 134.78308 7805 ft 241 kts 108°
2026-05-09 12:19 34.65432 134.80249 7423 ft 242 kts 107°
2026-05-09 12:19 34.64921 134.82251 6699 ft 258 kts 108°
2026-05-09 12:19 34.64377 134.84400 5960 ft 271 kts 108°
2026-05-09 12:19 34.63831 134.86575 5634 ft 265 kts 107°
2026-05-09 12:20 34.63308 134.88673 5403 ft 255 kts 107°
2026-05-09 12:20 34.62805 134.90694 5228 ft 244 kts 107°
2026-05-09 12:20 34.62324 134.92627 5027 ft 235 kts 107°
2026-05-09 12:20 34.61866 134.94462 4902 ft 216 kts 108°
2026-05-09 12:21 34.61452 134.96128 4741 ft 196 kts 107°
2026-05-09 12:21 34.61279 134.97706 4374 ft 188 kts 80°
2026-05-09 12:21 34.61501 134.99242 3934 ft 187 kts 84°
2026-05-09 12:21 34.61607 135.00751 3449 ft 187 kts 83°
2026-05-09 12:22 34.61715 135.02320 3051 ft 185 kts 81°
2026-05-09 12:22 34.61825 135.03800 2810 ft 182 kts 81°
2026-05-09 12:22 34.61943 135.05333 2561 ft 184 kts 81°
2026-05-09 12:22 34.62062 135.06881 2307 ft 182 kts 81°
2026-05-09 12:23 34.62175 135.08355 2086 ft 167 kts 82°
2026-05-09 12:23 34.62277 135.09693 1844 ft 152 kts 81°
2026-05-09 12:23 34.62377 135.10964 1654 ft 152 kts 81°
2026-05-09 12:23 34.62477 135.12230 1446 ft 149 kts 82°
2026-05-09 12:24 34.62572 135.13476 1266 ft 148 kts 83°
2026-05-09 12:24 34.62670 135.14732 1076 ft 150 kts 83°
2026-05-09 12:24 34.62768 135.15984 874 ft 148 kts 83°
2026-05-09 12:24 34.62864 135.17209 677 ft 143 kts 83°
2026-05-09 12:25 34.62955 135.18400 503 ft 140 kts 81°
2026-05-09 12:25 34.63049 135.19571 296 ft 140 kts 83°
2026-05-09 12:25 34.63109 135.20350 200 ft 141 kts 82°
2026-05-09 12:25 34.63244 135.21921 28 ft 131 kts 87°
2026-05-09 12:26 34.63287 135.22572 31 ft 103 kts 84°
2026-05-09 12:26 34.63342 135.23250 27 ft 60 kts 84°
2026-05-09 12:26 34.63365 135.23580 28 ft 21 kts 84°
2026-05-09 12:26 34.63451 135.23720 27 ft 0 kts
2026-05-09 12:27 34.63461 135.23719 27 ft 4 kts 359°
2026-05-09 12:27 34.63485 135.23715 26 ft 7 kts 351°
2026-05-09 12:27 34.63528 135.23675 29 ft 9 kts 286°
2026-05-09 12:27 34.63532 135.23581 26 ft 13 kts 263°
2026-05-09 12:28 34.63523 135.23475 26 ft 12 kts 264°
2026-05-09 12:28 34.63515 135.23371 26 ft 12 kts 263°
2026-05-09 12:28 34.63507 135.23270 30 ft 12 kts 264°
2026-05-09 12:28 34.63499 135.23172 26 ft 12 kts 265°
2026-05-09 12:29 34.63492 135.23076 29 ft 11 kts 264°
2026-05-09 12:29 34.63484 135.22983 26 ft 11 kts 264°
2026-05-09 12:29 34.63482 135.22898 28 ft 10 kts 292°
2026-05-09 12:29 34.63544 135.22871 30 ft 10 kts 353°
2026-05-09 12:30 34.63603 135.22864 28 ft 5 kts 355°
2026-05-09 12:30 34.63611 135.22863 28 ft 0 kts 354°